Observations for Trim Patrick St
| Time | AQI | Temp °C | Hum % | Pres Pa | CO μg/m³ | H₂S μg/m³ | NO μg/m³ | NO₂ μg/m³ | O₃ μg/m³ | SO₂ μg/m³ | PM1 μg/m³ | PM2.5 μg/m³ | PM10 μg/m³ |
|---|---|---|---|---|---|---|---|---|---|---|---|---|---|
| Tuesday 4 August 2026 | |||||||||||||
| 00:42 | 2 | 17.1 | 85 | 38,460 | 0.17 | 1.62 | 0.83 | 22.61 | 7.21 | 0.65 | 14.86 | 20.06 | 22.07 |
| 00:41 | 2 | 17 | 85 | 38,460 | 0.18 | 3.61 | 0.88 | 28.93 | 10.87 | 0 | 16.57 | 22.13 | 24.35 |
| 00:40 | 2 | 17.1 | 85 | 38,460 | 0.17 | 2.75 | 1.23 | 24.59 | 5.83 | 0 | 15.71 | 23.51 | 25.86 |
| 00:39 | 2 | 17.1 | 85 | 38,460 | 0.17 | 6.41 | 1.22 | 35.32 | 14.9 | 0.05 | 13.14 | 17.32 | 19.05 |
| 00:38 | 2 | 17.1 | 85 | 38,460 | 0.17 | 2.38 | 1.33 | 28.3 | 5.69 | 0 | 14.86 | 19.39 | 21.32 |
| 00:37 | 2 | 17.1 | 85 | 38,460 | 0.17 | 1.44 | 1.17 | 24.32 | 8.49 | 0.37 | 18.29 | 25.59 | 28.15 |
| 00:36 | 2 | 17.1 | 85 | 38,460 | 0.17 | 1.23 | 1.3 | 24.58 | 6.47 | 0 | 15.71 | 22.83 | 25.12 |
| 00:35 | 2 | 17.1 | 85 | 38,460 | 0.17 | 0.73 | 1.23 | 24.09 | 4.92 | 0 | 12.29 | 15.93 | 17.52 |
| 00:34 | 2 | 17.1 | 85 | 38,460 | 0.18 | 0.65 | 1.32 | 22.84 | 11.63 | 0 | 13.14 | 20.08 | 22.08 |
| 00:33 | 2 | 17 | 85 | 38,460 | 0.16 | 1.18 | 1.16 | 24.27 | 7.02 | 0 | 13.14 | 19.37 | 21.31 |
| 00:32 | 2 | 17 | 85 | 38,460 | 0.18 | 0.97 | 1.2 | 23.77 | 8.5 | 0.17 | 15.71 | 19.37 | 21.31 |
| 00:31 | 2 | 17.1 | 85 | 38,460 | 0.16 | 1.15 | 1.12 | 19.28 | 8.7 | 0 | 15.71 | 20.06 | 22.07 |
| 00:30 | 2 | 17.1 | 85 | 38,460 | 0.16 | 2.41 | 0.98 | 30.66 | 5.66 | 0 | 14.86 | 20.06 | 22.07 |
| 00:29 | 2 | 17 | 85 | 38,460 | 0.17 | 2.12 | 1.14 | 21.18 | 12.34 | 0.21 | 14 | 19.37 | 21.31 |
| 00:28 | 2 | 17 | 85 | 38,460 | 0.17 | 5.7 | 1.14 | 35.12 | 10.93 | 0 | 14 | 22.13 | 24.35 |
| 00:27 | 2 | 17 | 85 | 38,460 | 0.17 | 5.81 | 1.3 | 35.72 | 16.61 | 0 | 15.71 | 21.44 | 23.59 |
| 00:26 | 2 | 17.1 | 85 | 38,460 | 0.15 | 2.72 | 1.42 | 23.11 | 8.75 | 0 | 14 | 19.37 | 21.31 |
| 00:25 | 2 | 17 | 85 | 38,460 | 0.18 | 5.47 | 1.37 | 44.05 | 11.48 | 0 | 14.86 | 20.75 | 22.83 |
| 00:24 | 2 | 17 | 85 | 38,460 | 0.16 | 1.28 | 1.26 | 23.28 | 8.09 | 0.39 | 15.71 | 22.13 | 24.35 |
| 00:23 | 2 | 17 | 85 | 38,460 | 0.17 | 2.56 | 1.28 | 26.37 | 5.5 | 0 | 12.29 | 18 | 19.79 |